Argentia, Canada

4:15 PM NDT on July 26, 2017 (GMT -0230)
Argentia

Weather History for CWAR - January, 2014

Change the Weather History Date:

Tuesday, January 28, 2014

  Actual Average Record
Temperature  
Mean Temperature 34 °F -  
Max Temperature 49 °F - - ()
Min Temperature 19 °F - - ()
Degree Days  
Heating Degree Days 31    
Moisture  
Dew Point 31 °F    
Average Humidity 89    
Maximum Humidity 100    
Minimum Humidity 59    
Precipitation  
Precipitation 0.12 in - - ()
Sea Level Pressure  
Sea Level Pressure 29.79 in    
Wind  
Wind Speed 22 mph ()    
Max Wind Speed 36 mph    
Max Gust Speed 51 mph    
T = Trace of Precipitation, MM = Missing Value Source: Averaged Metar Reports

Daily Weather History Graph

Daily Weather History Graph

Search for Another Location

Airport or City:

Trip Planner

Search our weather history database for the weather conditions in past years. The results will help you decide how hot, cold, wet, or windy it might be!

Date:

Astronomy

Jan. 28, 2014 Rise Set
Actual Time 7:36 AM NST 5:01 PM NST
Civil Twilight 7:03 AM NST 5:35 PM NST
Nautical Twilight 6:26 AM NST 6:12 PM NST
Astronomical Twilight 5:50 AM NST 6:48 PM NST
Moon 5:15 AM NST (1/28) 2:42 PM NST (1/28)
Length of Visible Light 10h 31m
Length of Day
9h 25m
Waning Crescent, 8% of the Moon is Illuminated
Jan 28
Waning Crescent
Jan 30
New
Feb 6
First Quarter
Feb 14
Full
Feb 22
Last Quarter

Hourly Weather History & Observations

Time (NST) Temp. Windchill Dew Point Humidity Pressure Visibility Wind Dir Wind Speed Gust Speed Precip Events Conditions
12:30 AM 38.3 °F 25.2 °F 36.1 °F 92% 29.78 in - SSE 35.7 mph 50.6 mph 0.13 in   Unknown
1:30 AM 41.7 °F 30.6 °F 39.7 °F 93% 29.75 in - SSE 31.1 mph 40.3 mph 0.13 in   Unknown
2:30 AM 43 °F - 40 °F 87% 29.73 in - South 27.6 mph - -  
2:30 AM 42.8 °F 32.7 °F 40.5 °F 91% 29.73 in - South 27.6 mph 36.8 mph 0.09 in   Unknown
3:30 AM 45.0 °F 36.2 °F 42.8 °F 92% 29.68 in - South 24.2 mph 34.5 mph 0.07 in   Unknown
4:30 AM 45.5 °F 38.1 °F 41.9 °F 87% 29.66 in - South 18.4 mph 25.3 mph 0.02 in   Unknown
5:30 AM 45 °F - 44 °F 92% 29.63 in - SSW 20.7 mph - -  
5:30 AM 44.8 °F 36.6 °F 43.5 °F 95% 29.63 in - SSW 20.7 mph 28.8 mph N/A   Unknown
6:30 AM 48.4 °F - 45.5 °F 90% 29.59 in - South 13.8 mph 20.7 mph 0.03 in   Unknown
7:30 AM 41.5 °F 33.8 °F 40.8 °F 97% 29.62 in - SSW 15.0 mph - N/A   Unknown
8:30 AM 39 °F - 38 °F 96% 29.64 in - SSW 18.4 mph - -  
8:30 AM 38.8 °F 29.4 °F 38.3 °F 98% 29.64 in - SSW 18.4 mph 24.2 mph N/A   Unknown
9:30 AM 36.9 °F 27.1 °F 36.3 °F 98% 29.66 in - SSW 17.3 mph - N/A   Unknown
10:30 AM 35.2 °F 25.8 °F 35.1 °F 99% 29.68 in - SSW 15.0 mph - N/A   Unknown
11:30 AM 35 °F - 35 °F 98% 29.69 in - SSW 17.3 mph - -  
11:30 AM 34.9 °F 24.6 °F 34.7 °F 99% 29.69 in - SSW 17.3 mph 24.2 mph N/A   Unknown
12:30 PM 33.3 °F 21.5 °F 33.1 °F 99% 29.69 in - SSW 20.7 mph 28.8 mph N/A   Unknown
1:30 PM 31.8 °F 19.3 °F 32.0 °F 100% 29.71 in - SW 21.9 mph 27.6 mph N/A   Unknown
2:30 PM 32 °F - 31 °F 96% 29.75 in - SW 19.6 mph - -  
2:30 PM 31.6 °F 19.7 °F 31.3 °F 99% 29.75 in - SW 19.6 mph - N/A   Unknown
3:30 PM 31.3 °F 17.9 °F 29.5 °F 93% 29.78 in - West 24.2 mph - N/A   Unknown
4:30 PM 30.2 °F 15.9 °F 27.9 °F 91% 29.84 in - WSW 26.5 mph 33.4 mph N/A   Unknown
5:30 PM 30 °F - 26 °F 81% 29.88 in - West 28.8 mph - -  
5:30 PM 29.7 °F 14.7 °F 26.4 °F 88% 29.88 in - West 28.8 mph 35.7 mph N/A   Unknown
6:30 PM 27.7 °F 12.0 °F 23.4 °F 84% 29.94 in - West 28.8 mph 36.8 mph N/A   Unknown
7:30 PM 26.8 °F 9.8 °F 21.9 °F 82% 29.97 in - West 33.4 mph 42.6 mph N/A   Unknown
8:30 PM 24 °F - 16 °F 59% 30.02 in - West 34.5 mph - -  
8:30 PM 24.4 °F 6.4 °F 15.6 °F 69% 30.02 in - West 34.5 mph 43.7 mph N/A   Unknown
9:30 PM 21.7 °F 3.7 °F 13.6 °F 71% 30.05 in - West 29.9 mph 40.3 mph N/A   Unknown
10:30 PM 20.8 °F 2.2 °F 13.5 °F 73% 30.10 in - West 31.1 mph 39.1 mph N/A   Unknown
11:30 PM 19 °F - 14 °F 73% 30.13 in - WNW 24.2 mph - -  
11:30 PM 19.4 °F 2.1 °F 14.0 °F 80% 30.13 in - WNW 24.2 mph 35.7 mph N/A   Unknown